CORVUS BC3 (43118 NORAD) Tracking and Keplerian Element Data

This shows tracking and keplerian element data for the satellite.

Feedback or suggestion? Click here.




ElementValue
Catalog43118
NameCORVUS BC3
Epoch Orbit20477
Epoch Day261.62884929
Epoch Year2021
RAAN333.0172
Inclination97.3964
Eccentricity0.0008557
Argument of Perigee236.3161
Mean Anonmoly123.7261
Mean Motion15.24535939
Decay Rate1.446E-05
L11 43118U 18004H 21261.62884929 .00001446 00000-0 61612-4 0 9995
L22 43118 97.3964 333.0172 0008557 236.3161 123.7261 15.24535939204771

Live tracking and technical data element details for CORVUS BC3 (NORAD 43118). CORVUS BC3 can be tracked NOW for your location showing map with azimuth and elevation plus other details from your city location.

Track the satellite on the map from your city or location and see movement details for azimuth, elevation, latitude, longitude, range, height, and movement on the map or in text.







IsCatalogInMostPopularTable: catalog: 43118, numindb: 525
Update: records affected: 1



GetName: 43118 CORVUS BC3

Hit Count: updated at: Fri, 24 Sep 2021 18:29:53 GMT